This is the latest recevied weather packets stored in our database for station/object N1HRK. If no packets are shown the sender has not sent any weather packets the latest 10 day(s).
| Time | Temp. | Humidity | Pressure | Rain* | Wind** | Luminosity | Snow |
|---|---|---|---|---|---|---|---|
| 1777541953 | 8.89° C | 95% | 1007.2 hPa | 0.76 mm | - | - | - |
| 1777541780 | 8.89° C | 95% | 1007.1 hPa | 0.76 mm | - | - | - |
| 1777541354 | 8.89° C | 95% | 1007.4 hPa | 1.02 mm | - | - | - |
| 1777541179 | 9.44° C | 95% | 1007.3 hPa | 1.02 mm | - | - | - |
| 1777540753 | 9.44° C | 95% | 1007.4 hPa | 1.02 mm | - | - | - |
| 1777540580 | 9.44° C | 95% | 1007.6 hPa | 1.02 mm | - | - | - |
| 1777540152 | 8.89° C | 95% | 1007.6 hPa | 1.02 mm | - | - | - |
| 1777539980 | 8.89° C | 95% | 1007.6 hPa | 1.02 mm | - | - | - |
| 1777539553 | 8.89° C | 95% | 1007.8 hPa | 1.02 mm | - | - | - |
| 1777539379 | 8.89° C | 95% | 1008 hPa | 1.02 mm | - | - | - |
| 1777538953 | 8.89° C | 95% | 1008.3 hPa | 0.51 mm | - | - | - |
| 1777538780 | 9.44° C | 95% | 1008.1 hPa | 0.76 mm | - | - | - |
| 1777538352 | 8.89° C | 94% | 1007.6 hPa | 0.51 mm | - | - | - |
| 1777538180 | 9.44° C | 94% | 1007.6 hPa | 0.51 mm | - | - | - |
| 1777537753 | 8.89° C | 94% | 1007.5 hPa | 0.51 mm | - | - | - |
| 1777537579 | 9.44° C | 94% | 1007.6 hPa | 0.51 mm | - | - | - |
| 1777537153 | 9.44° C | 94% | 1007.6 hPa | 0.51 mm | - | - | - |
| 1777536979 | 9.44° C | 94% | 1007.7 hPa | 0.51 mm | - | - | - |
| 1777536552 | 9.44° C | 94% | 1007.9 hPa | 0.51 mm | - | - | - |
| 1777536380 | 8.89° C | 94% | 1007.9 hPa | 0.51 mm | - | - | - |
| 1777535953 | 8.89° C | 93% | 1008.1 hPa | 0.51 mm | - | - | - |
| 1777535778 | 9.44° C | 93% | 1008.2 hPa | 0.51 mm | - | - | - |
| 1777535354 | 9.44° C | 93% | 1008.4 hPa | 0.51 mm | - | - | - |
| 1777535180 | 9.44° C | 93% | 1008.5 hPa | 0.51 mm | - | - | - |
| 1777534753 | 9.44° C | 93% | 1008.7 hPa | 0.25 mm | - | - | - |
* Rain latest hour (hover to see other rain measurements)
** Current wind speed in m/s (hover to see current wind gust speed)